Location: Unspecified
(51.3762°N, 0.0000°E)
Time: 04:50:24
(UTC+00:00)

NANOSAT C BR1 - Visible Passes

Search period start: 18 August 2019 00:00
Search period end: 28 August 2019 00:00
Orbit: 590 x 606 km, 97.9° (Epoch: 16 August)

Date Brightness Start Highest point End Pass type
(mag) Time Alt. Az. Time Alt. Az. Time Alt. Az.
18 Aug ? 00:53:49 10° NNE 00:57:54 77° ENE 00:57:54 77° ENE visible
18 Aug ? 02:30:43 10° NNW 02:33:12 15° WNW 02:34:36 13° W visible
18 Aug ? 23:30:26 10° ENE 23:31:47 13° ENE 23:31:47 13° ENE visible
19 Aug ? 01:04:24 10° NNE 01:08:29 79° NW 01:08:29 79° NW visible
19 Aug ? 02:41:46 10° NNW 02:43:37 13° NW 02:45:12 11° WNW visible
19 Aug ? 23:40:26 10° NE 23:42:23 16° ENE 23:42:23 16° ENE visible
20 Aug ? 01:15:00 10° N 01:19:05 64° WNW 01:19:05 64° WNW visible
20 Aug ? 02:53:14 10° NW 02:54:02 10° NW 02:54:51 10° WNW visible
20 Aug ? 23:50:37 10° NE 23:52:58 19° ENE 23:52:58 19° ENE visible
21 Aug ? 01:25:37 10° N 01:29:40 51° WNW 01:29:40 51° WNW visible
22 Aug ? 00:00:56 10° NE 00:03:34 23° ENE 00:03:34 23° ENE visible
22 Aug ? 01:36:16 10° N 01:40:15 41° WNW 01:40:16 41° WNW visible
23 Aug ? 00:11:18 10° NNE 00:14:09 28° ENE 00:14:09 28° ENE visible
23 Aug ? 01:46:57 10° N 01:50:45 33° WNW 01:50:52 33° WNW visible
24 Aug ? 00:21:44 10° NNE 00:24:45 33° ENE 00:24:45 33° ENE visible
24 Aug ? 01:57:40 10° N 02:01:15 27° WNW 02:01:27 27° WNW visible
25 Aug ? 00:32:12 10° NNE 00:35:20 40° ENE 00:35:20 40° ENE visible
25 Aug ? 02:08:25 10° N 02:11:43 22° WNW 02:12:02 22° WNW visible
26 Aug ? 00:42:42 10° NNE 00:45:55 46° NE 00:45:55 46° NE visible
26 Aug ? 02:19:14 10° NNW 02:22:10 19° WNW 02:22:37 18° WNW visible
27 Aug ? 00:53:15 10° NNE 00:56:30 52° NNE 00:56:30 52° NNE visible
27 Aug ? 02:30:07 10° NNW 02:32:37 16° WNW 02:33:13 15° WNW visible
27 Aug ? 23:29:58 10° ENE 23:30:23 11° ENE 23:30:23 11° ENE visible
